FW1908 Weather Reports


time (UTC)temp
F
wind
direction
speed
knots
gust
knots
rain 1hr
in
rain 24hr
in
rain mn
in
humidity
%
barometer
mb
20260505031842 63 266 0.0 0.0 0.00 0.00 0.00 52 1016.0
20260505031341 63 266 0.0 0.0 0.00 0.00 0.00 52 1016.0
20260505030842 63 266 0.0 0.0 0.00 0.00 0.00 51 1016.0
20260505030341 64 266 0.0 0.0 0.00 0.00 0.00 51 1016.1
20260505025841 64 266 0.0 0.0 0.00 0.00 0.00 50 1016.0
20260505025342 64 266 0.0 0.0 0.00 0.00 0.00 49 1016.1
20260505024841 64 266 0.0 0.0 0.00 0.00 0.00 49 1016.0
20260505024342 64 266 0.0 0.0 0.00 0.00 0.00 48 1016.0
20260505023842 65 266 0.0 0.0 0.00 0.00 0.00 48 1015.9
20260505023337 65 266 0.0 0.0 0.00 0.00 0.00 47 1015.9
20260505022838 65 266 0.0 0.0 0.00 0.00 0.00 48 1015.8
20260505022338 65 266 0.0 0.0 0.00 0.00 0.00 48 1015.8
20260505022055 65 266 0.0 0.0 0.00 0.00 0.00 47 1015.8
20260505021337 65 266 0.0 0.0 0.00 0.00 0.00 47 1015.7
20260505020837 66 266 0.0 0.0 0.00 0.00 0.00 47 1015.7
20260505020337 66 266 0.0 0.0 0.00 0.00 0.00 46 1015.7
20260505015838 66 266 0.0 0.0 0.00 0.00 0.00 44 1015.6
20260505015338 67 266 0.0 0.0 0.00 0.00 0.00 44 1015.5
20260505014833 67 266 0.0 0.0 0.00 0.00 0.00 44 1015.5
20260505014333 67 266 0.0 0.0 0.00 0.00 0.00 44 1015.4
20260505013834 67 266 0.0 0.0 0.00 0.00 0.00 44 1015.3
20260505013334 68 266 0.0 0.0 0.00 0.00 0.00 43 1015.3
20260505012832 68 266 0.0 0.0 0.00 0.00 0.00 43 1015.2
20260505012330 69 266 0.0 0.0 0.00 0.00 0.00 42 1015.2
20260505011829 69 266 0.0 0.0 0.00 0.00 0.00 41 1015.1
20260505011325 70 266 0.0 0.0 0.00 0.00 0.00 40 1015.1
20260505010825 70 266 0.0 0.0 0.00 0.00 0.00 40 1015.0
20260505010549 71 266 0.0 0.0 0.00 0.00 0.00 40 1015.0
20260505010041 71 266 0.0 0.0 0.00 0.00 0.00 39 1014.9
20260505005319 71 266 0.0 0.0 0.00 0.00 0.00 37 1014.9
20260505004817 72 266 0.0 0.0 0.00 0.00 0.00 37 1014.8
20260505003811 73 265 0.0 0.0 0.00 0.00 0.00 37 1014.8
20260505003302 73 265 0.0 0.0 0.00 0.00 0.00 37 1014.7
20260505002300 74 265 0.0 0.0 0.00 0.00 0.00 35 1014.6
20260505001802 74 265 0.0 0.0 0.00 0.00 0.00 35 1014.6
20260505000757 74 265 0.0 0.0 0.00 0.00 0.00 34 1014.6
20260505000255 75 265 0.0 2.6 0.00 0.00 0.00 34 1014.6
20260504235253 75 307 0.0 4.3 0.00 0.00 0.00 33 1014.5
20260504234753 75 224 0.9 4.3 0.00 0.00 0.00 33 1014.4
20260504234251 76 194 0.0 6.1 0.00 0.00 0.00 33 1014.3
20260504234019 76 275 0.0 6.1 0.00 0.00 0.00 33 1014.1
20260504233512 76 248 0.0 2.6 0.00 0.00 0.00 32 1014.1
20260504232749 76 224 0.0 1.7 0.00 0.00 0.00 31 1014.0
20260504232248 76 302 0.0 0.9 0.00 0.00 0.00 30 1014.0
20260504231747 77 39 0.9 5.2 0.00 0.00 0.00 29 1013.9
20260504231518 77 228 0.9 6.1 0.00 0.00 0.00 30 1013.9
20260504230746 77 264 0.9 6.1 0.00 0.00 0.00 30 1013.9
20260504230244 77 243 0.9 3.5 0.00 0.00 0.00 32 1013.9
20260504225739 77 261 0.0 1.7 0.00 0.00 0.00 31 1013.9
20260504225233 77 188 0.9 6.1 0.00 0.00 0.00 32 1013.9
20260504224726 77 245 0.9 6.1 0.00 0.00 0.00 31 1013.9
20260504224221 78 271 0.0 3.5 0.00 0.00 0.00 30 1013.9
20260504223715 78 252 0.9 3.5 0.00 0.00 0.00 29 1013.9
20260504223209 78 254 0.9 4.3 0.00 0.00 0.00 29 1013.9
20260504222925 78 287 0.9 6.1 0.00 0.00 0.00 28 1013.9
20260504222422 78 300 1.7 6.1 0.00 0.00 0.00 28 1013.9
20260504221651 78 281 0.9 6.1 0.00 0.00 0.00 29 1013.9
20260504221145 78 180 0.9 4.3 0.00 0.00 0.00 27 1014.0
20260504220638 78 269 0.9 5.2 0.00 0.00 0.00 29 1014.0
20260504220133 78 265 0.9 6.1 0.00 0.00 0.00 27 1014.0
20260504215846 78 252 0.9 6.1 0.00 0.00 0.00 27 1013.9
20260504215121 78 234 1.7 7.8 0.00 0.00 0.00 27 1013.9
20260504214615 78 238 1.7 7.8 0.00 0.00 0.00 27 1014.0
20260504214109 78 273 0.9 5.2 0.00 0.00 0.00 26 1013.9
20260504213604 78 316 0.9 3.5 0.00 0.00 0.00 26 1013.9
20260504212551 78 190 0.9 2.6 0.00 0.00 0.00 26 1014.1
20260504212046 78 37 1.7 5.2 0.00 0.00 0.00 26 1014.0
20260504211803 78 255 1.7 6.1 0.00 0.00 0.00 27 1014.0
20260504211034 78 259 0.9 6.1 0.00 0.00 0.00 27 1014.0
20260504210755 78 169 0.9 5.2 0.00 0.00 0.00 30 1014.0
20260504210246 78 267 1.7 5.2 0.00 0.00 0.00 28 1014.1
20260504205740 78 288 0.9 7.0 0.00 0.00 0.00 28 1014.3
20260504205009 79 271 0.0 7.0 0.00 0.00 0.00 27 1014.3
20260504204218 79 255 1.7 7.0 0.00 0.00 0.00 25 1014.5
20260504203451 80 290 2.6 7.0 0.00 0.00 0.00 26 1014.5
20260504202945 80 284 1.7 7.0 0.00 0.00 0.00 27 1014.6
20260504202700 80 257 0.0 4.3 0.00 0.00 0.00 27 1014.6
20260504201933 80 75 0.9 6.1 0.00 0.00 0.00 26 1014.7
20260504201427 80 216 0.9 6.1 0.00 0.00 0.00 31 1014.7
20260504201154 80 286 0.9 3.5 0.00 0.00 0.00 26 1014.8
20260504200425 80 77 0.9 4.3 0.00 0.00 0.00 27 1014.7
20260504195926 80 231 0.9 4.3 0.00 0.00 0.00 25 1014.8
20260504195425 81 277 0.9 4.3 0.00 0.00 0.00 25 1015.0
20260504194925 81 273 0.9 3.5 0.00 0.00 0.00 28 1014.9
20260504194424 81 233 0.9 3.5 0.00 0.00 0.00 28 1014.8
20260504193926 80 323 0.9 7.0 0.00 0.00 0.00 25 1015.0
20260504193643 80 251 1.7 7.0 0.00 0.00 0.00 25 1015.0
20260504192924 80 284 1.7 6.1 0.00 0.00 0.00 27 1015.1
20260504192641 80 215 0.9 5.2 0.00 0.00 0.00 25 1015.2
20260504191923 80 75 0.9 5.2 0.00 0.00 0.00 25 1015.2
20260504191423 81 36 1.7 7.0 0.00 0.00 0.00 28 1015.4
20260504190923 80 254 1.7 7.0 0.00 0.00 0.00 27 1015.4
20260504190423 81 289 0.9 7.0 0.00 0.00 0.00 27 1015.4
20260504185923 80 11 0.9 5.2 0.00 0.00 0.00 28 1015.4
20260504185423 80 211 0.9 4.3 0.00 0.00 0.00 31 1015.6
20260504185145 80 237 1.7 4.3 0.00 0.00 0.00 31 1015.5
20260504184417 80 293 1.7 4.3 0.00 0.00 0.00 29 1015.6
20260504183911 80 248 1.7 5.2 0.00 0.00 0.00 28 1015.8
20260504183405 80 145 0.9 5.2 0.00 0.00 0.00 27 1015.8
20260504182859 80 283 0.9 5.2 0.00 0.00 0.00 31 1015.9
20260504182353 80 92 0.9 5.2 0.00 0.00 0.00 30 1016.0
20260504182113 80 76 0.9 4.3 0.00 0.00 0.00 30 1016.0
20260504181341 80 55 0.9 4.3 0.00 0.00 0.00 30 1016.0
20260504180834 80 209 0.9 4.3 0.00 0.00 0.00 28 1016.1
20260504180330 79 246 0.9 4.3 0.00 0.00 0.00 31 1016.2
20260504175827 79 323 0.9 4.3 0.00 0.00 0.00 31 1016.3
20260504175326 79 329 0.9 4.3 0.00 0.00 0.00 29 1016.3
20260504174827 79 93 0.9 4.3 0.00 0.00 0.00 33 1016.3
20260504174327 79 80 0.9 3.5 0.00 0.00 0.00 30 1016.3
20260504173825 79 242 0.9 3.5 0.00 0.00 0.00 32 1016.3
20260504173327 78 82 0.9 6.1 0.00 0.00 0.00 33 1016.4
20260504172826 78 151 1.7 6.1 0.00 0.00 0.00 33 1016.5
20260504172549 78 175 0.9 7.0 0.00 0.00 0.00 34 1016.6
20260504172042 77 94 0.9 7.0 0.00 0.00 0.00 34 1016.5
20260504171322 77 331 0.9 4.3 0.00 0.00 0.00 30 1016.5
20260504170822 77 226 0.9 4.3 0.00 0.00 0.00 34 1016.5
20260504170322 77 141 0.9 2.6 0.00 0.00 0.00 33 1016.6
20260504160315 73 268 0.9 3.5 0.00 0.00 0.00 41 1017.8
20260504150809 69 181 0.9 4.3 0.00 0.00 0.00 49 1017.9
20260504150308 69 98 0.0 2.6 0.00 0.00 0.00 54 1018.0
20260504141302 61 300 0.0 2.6 0.00 0.00 0.00 67 1018.1
20260504140803 60 300 0.0 1.7 0.00 0.00 0.00 68 1018.0
20260504130758 54 224 0.9 3.5 0.00 0.00 0.00 81 1018.0
20260504130256 53 316 0.9 3.5 0.00 0.00 0.00 82 1018.1
20260504120252 46 76 0.0 0.0 0.00 0.00 0.00 90 1017.6
20260504110656 45 243 0.0 0.0 0.00 0.00 0.00 87 1017.8
20260504110149 45 243 0.0 0.0 0.00 0.00 0.00 87 1017.7
20260504100544 46 249 0.0 0.0 0.00 0.00 0.00 87 1017.6
20260504081838 47 249 0.0 0.9 0.00 0.00 0.00 83 1017.1
20260504081332 47 249 0.0 0.0 0.00 0.00 0.00 83 1017.1
20260504081045 47 249 0.0 0.0 0.00 0.00 0.00 83 1017.1
20260504080320 47 249 0.0 0.0 0.00 0.00 0.00 83 1017.1
20260504050619 50 249 0.9 0.9 0.00 0.00 0.00 77 1017.5
20260504050116 50 249 0.9 0.9 0.00 0.00 0.00 76 1017.5
20260504045616 50 249 0.0 0.9 0.00 0.00 0.00 76 1017.6
20260504045116 51 249 0.0 0.9 0.00 0.00 0.00 75 1017.7
20260504044613 51 249 0.0 0.9 0.00 0.00 0.00 75 1017.7
20260504044114 51 249 0.0 0.0 0.00 0.00 0.00 74 1017.6
20260504043613 51 249 0.0 0.0 0.00 0.00 0.00 74 1017.7
20260504043111 51 249 0.0 0.0 0.00 0.00 0.00 73 1017.7
20260504042612 51 249 0.0 0.0 0.00 0.00 0.00 73 1017.7
20260504042112 51 249 0.0 0.0 0.00 0.00 0.00 73 1017.8
20260504041610 52 249 0.0 0.0 0.00 0.00 0.00 73 1017.8
20260504041108 52 249 0.0 0.0 0.00 0.00 0.00 72 1017.8
20260504040836 52 249 0.0 0.0 0.00 0.00 0.00 71 1017.8
20260504040107 52 249 0.0 0.0 0.00 0.00 0.00 71 1017.9
20260504035821 52 249 0.0 0.0 0.00 0.00 0.00 71 1017.9
20260504035315 53 249 0.0 0.0 0.00 0.00 0.00 70 1017.8
20260504034550 53 249 0.0 0.0 0.00 0.00 0.00 70 1017.8
20260504034045 53 249 0.0 0.0 0.00 0.00 0.00 69 1017.8
20260504033754 53 249 0.0 0.0 0.00 0.00 0.00 69 1017.9
20260504033033 53 249 0.0 0.0 0.00 0.00 0.00 69 1017.9
20260504032750 53 249 0.0 0.0 0.00 0.00 0.00 68 1017.9